User: anonymous   Login
Location: Abraham Lincoln Continuation High School
(33.9711°N, 117.3662°W)
Time: 04:41:17
(UTC+00:00)
Language:

PAYLOAD A - Orbit

View from above orbital plane
View from above orbital plane
View from above satellite
View from above satellite

Ground track
Ground track

The orbit data is extracted from the following two-line orbital elements,

1 27840U 03031A   20333.52585023 -.00000010 +00000-0 +10994-4 0  9998
2 27840 098.3447 300.5469 0097063 286.2916 072.7614 14.38948078914467
Epoch (UTC): 28 November 2020 12:37:13
Eccentricity: 0.0097063
inclination: 98.3447°
perigee height: 692 km
apogee height: 831 km
right ascension of ascending node: 300.5469°
argument of perigee: 286.2916°
revolutions per day: 14.38948078
mean anomaly at epoch: 72.7614°
orbit number at epoch: 91446

The dashed part of the orbit path shows where the satellite is in the earth's shadow,  

DLR